Millington, TN

5:43 PM CDT on October 18, 2017 (GMT -0500)
Millington Municipal

Weather History for KNQA - April, 2013

Change the Weather History Date:

Saturday, April 27, 2013

  Actual Average Record
Temperature  
Mean Temperature 62 °F -  
Max Temperature 71 °F 73 °F 86 °F (2001)
Min Temperature 53 °F 55 °F 41 °F (2006)
Degree Days  
Heating Degree Days 3    
Growing Degree Days 12 (Base 50)    
Moisture  
Dew Point 58 °F    
Average Humidity 94    
Maximum Humidity 100    
Minimum Humidity 83    
Precipitation  
Precipitation 0.00 in - - ()
Sea Level Pressure  
Sea Level Pressure 30.05 in    
Wind  
Wind Speed 5 mph (East)    
Max Wind Speed 9 mph    
Max Gust Speed -    
Visibility 9 miles    
Events Rain , Thunderstorm    
Averages and records for this station are not official NWS values.
T = Trace of Precipitation, MM = Missing Value Source: NWS Daily Summary

Daily Weather History Graph

Daily Weather History Graph

Search for Another Location

Airport or City:

Trip Planner

Search our weather history database for the weather conditions in past years. The results will help you decide how hot, cold, wet, or windy it might be!

Date:

Astronomy

Apr. 27, 2013 Rise Set
Actual Time 6:12 AM CDT 7:42 PM CDT
Civil Twilight 5:45 AM CDT 8:09 PM CDT
Nautical Twilight 5:12 AM CDT 8:41 PM CDT
Astronomical Twilight 4:39 AM CDT 9:15 PM CDT
Moon 10:07 PM CDT (4/27) 7:34 AM CDT (4/27)
Length of Visible Light 14h 24m
Length of Day
13h 30m
Waning Gibbous, 95% of the Moon is Illuminated
Apr 27
Waning Gibbous
May 2
Last Quarter
May 9
New
May 17
First Quarter
May 24
Full

Hourly Weather History & Observations

Time (CDT) Temp. Dew Point Humidity Pressure Visibility Wind Dir Wind Speed Gust Speed Precip Events Conditions
12:55 AM 53.6 °F 50.0 °F 88% 30.22 in 10.0 mi ENE 9.2 mph - N/A   Overcast
2:55 AM 53.6 °F 51.8 °F 94% 30.14 in 10.0 mi Variable 4.6 mph - N/A   Overcast
3:15 AM 53.6 °F 51.8 °F 94% 30.12 in 10.0 mi Variable 4.6 mph - N/A   Overcast
3:35 AM 53.6 °F 51.8 °F 94% 30.11 in 10.0 mi Variable 4.6 mph - N/A   Overcast
3:55 AM 53.6 °F 51.8 °F 94% 30.11 in 10.0 mi Variable 4.6 mph - N/A   Overcast
4:15 AM 53.6 °F 51.8 °F 94% 30.12 in 10.0 mi ESE 5.8 mph - N/A   Overcast
4:35 AM 53.6 °F 51.8 °F 94% 30.11 in 10.0 mi Calm Calm - N/A   Overcast
4:55 AM 53.6 °F 51.8 °F 94% 30.11 in 10.0 mi Calm Calm - N/A   Overcast
5:15 AM 53.6 °F 51.8 °F 94% 30.10 in 10.0 mi Variable 4.6 mph - N/A   Overcast
6:55 AM 53.6 °F 53.6 °F 100% 30.12 in 2.5 mi NE 4.6 mph - N/A Rain , Thunderstorm Thunderstorms and Rain
7:55 AM 53.6 °F 53.6 °F 100% 30.10 in 3.0 mi East 5.8 mph - N/A Rain Rain
8:55 AM 55.4 °F 55.4 °F 100% 30.10 in 10.0 mi Variable 4.6 mph - N/A Rain Light Rain
9:55 AM 55.4 °F 55.4 °F 100% 30.09 in 10.0 mi Variable 3.5 mph - N/A   Overcast
10:55 AM 57.2 °F 57.2 °F 100% 30.09 in 10.0 mi ENE 4.6 mph - N/A   Overcast
11:55 AM 60.8 °F 59.0 °F 94% 30.09 in 10.0 mi East 3.5 mph - N/A   Overcast
12:55 PM 60.8 °F 59.0 °F 94% 30.07 in 8.0 mi Calm Calm - N/A   Overcast
1:55 PM 62.6 °F 62.6 °F 100% 30.04 in 8.0 mi ESE 4.6 mph - N/A   Overcast
2:55 PM 64.4 °F 64.4 °F 100% 30.00 in 3.0 mi Variable 3.5 mph - N/A   Overcast
3:55 PM 71.6 °F 66.2 °F 83% 29.96 in 10.0 mi South 5.8 mph - N/A   Overcast
4:55 PM 71.6 °F 66.2 °F 83% 29.94 in 10.0 mi South 6.9 mph - N/A   Overcast
5:55 PM 71.6 °F 66.2 °F 83% 29.92 in 10.0 mi Variable 6.9 mph - N/A   Mostly Cloudy
6:55 PM 71.6 °F 66.2 °F 83% 29.90 in 10.0 mi Variable 3.5 mph - N/A   Overcast
7:55 PM 69.8 °F 66.2 °F 88% 29.90 in 10.0 mi Calm Calm - N/A   Overcast
8:55 PM 64.4 °F 64.4 °F 100% 29.91 in 9.0 mi WNW 8.1 mph - N/A   Overcast
9:55 PM 62.6 °F 62.6 °F 100% 29.95 in 10.0 mi WNW 8.1 mph - N/A   Mostly Cloudy
10:55 PM 62.6 °F 60.8 °F 94% 29.94 in 10.0 mi NW 8.1 mph - N/A   Overcast
11:55 PM 60.8 °F 59.0 °F 94% 29.97 in 10.0 mi West 8.1 mph - N/A   Overcast